Preview of NWS' New Version of Forecast
This preview is not operational and should not be used for support decisions.

Regional Weather Roundup (RWR)

Issued by Gray - Portland, ME (GYX)

                            
000
ASUS41 KGYX 210305
RWRGYX
WEATHER ROUNDUP FOR MAINE AND NEW HAMPSHIRE
NATIONAL WEATHER SERVICE GRAY ME
1000 PM EST SUN JAN 20 2019

MEZ002-005-006-010-012-015-018-020-021-024-026-027-029-210400-
MAINE
  
CITY           SKY/WX    TMP DP  RH WIND       PRES   REMARKS
PORTLAND       CLOUDY    18   9  68 NW17      29.36R WCI   3          
SANFORD        MOCLDY     9   1  70 W14G24    29.38R WCI  -7          
BAR HARBOR     LGT SNOW  14  11  87 N14       29.22R FOG     WCI  -1  
WISCASSET      CLOUDY    14   6  70 VRB3      29.33R                  
ROCKLAND       CLOUDY    12   7  80 NW12G24   29.27R WCI  -2          
FRYEBURG       FAIR      13   1  59 CALM      29.34R                  
LEWISTONAUBURN CLOUDY    12   3  67 NW15      29.34R WCI  -4          
AUGUSTA        CLOUDY    11   3  70 N17G32    29.32R WCI  -6          
WATERVILLE       N/A    N/A N/A N/A MISG        N/A                   
BANGOR         LGT SNOW  11   6  81 NW12      29.30R FOG     WCI  -3  
GREENVILLE       N/A      4  -3  73 NW13G24   29.22F WCI -13          
MILLINOCKET    LGT SNOW   7   3  84 W7        29.29F FOG              
HOULTON        LGT SNOW  16  13  88 N10G23    29.22F VSB 1   WCI   4  
PRESQUE ISLE   LGT SNOW  12   9  87 N23G32    29.30F FOG     WCI  -7  
FRENCHVILLE    SNOW      10   3  73 N16G23    29.35F VSB 1/2 WCI  -7  
CARIBOU        LGT SNOW  11   6  81 N21G35    29.31F VSB 3/4 WCI  -8  
$$

NHZ002-005-008-009-011-012-014-210400-
NEW HAMPSHIRE
  
CITY           SKY/WX    TMP DP  RH WIND       PRES   REMARKS
ROCHESTER      FAIR       8  -2  63 NW14G26   29.38R WCI  -8          
NASHUA         FAIR       8  -2  63 NW26G39   29.49R WCI -14          
MANCHESTER     FAIR       7  -7  52 NW14G26   29.47R WCI -10          
CONCORD        FAIR       3  -8  60 NW20G36   29.47R WCI -18          
LACONIA        FLURRIES   2  -7  66 W14G28    29.41R WCI -16          
PLYMOUTH       FAIR       1  -9  65 W14G33    29.49S HAZE    WCI -18  
BERLIN         MOCLDY     0  -7  72 VRB6      29.48R                  
WHITEFIELD     CLOUDY    -1  -9  68 NW7       29.54R                  
JAFFREY        FAIR       3  -7  63 NW9G23    29.45R                  
KEENE          FAIR       3  -8  60 NW17G24   29.56S WCI -17          
LEBANON        FAIR       1 -12  54 N13       29.59R WCI -17          
MT WASHINGTON  NOT AVBL                                               
$$

VTZ005-007-008-210400-
VERMONT
  
CITY           SKY/WX    TMP DP  RH WIND       PRES   REMARKS
ST JOHNSBURY     N/A     -3 -12  65 MISG      29.60R                  
MONTPELIER     CLOUDY    -5  -9  83 NW10      29.62R FOG     WCI -23  
BURLINGTON     LGT SNOW   0  -5  79 N8        29.74S VSB 3/4          
$$

MAZ007-012-024-CTZ003-RIZ002-NYZ038-NYZ072-210400-
SOUTHERN NEW ENGLAND AND NY
  
CITY           SKY/WX    TMP DP  RH WIND       PRES   REMARKS
BOSTON         FAIR      16   4  59 NW18G31   29.46R WCI   0          
WORCESTER      FAIR       4  -4  69 NW23G35   29.43R WCI -18          
NANTUCKET      CLOUDY    27  21  78 NW18G28   29.39R WCI  14          
PROVIDENCE     FAIR      15   7  70 NW13G30   29.50R WCI   1          
HARTFORD       FAIR       6  -4  63 NW21G31   29.62R WCI -14          
ALBANY         FAIR       2 -10  57 NW17G28   29.76R WCI -18          
NEW YORK CITY  FAIR      16   5  62 NW29G44   29.71R WCI  -4          
$$

ANZ081-ANZ082-ANZ150-NHZ014-MEZ023>029-210400-
COASTAL MARINE OBSERVATIONS
  
STATION/POSITION TIME  TEMP    WIND        PRES    WAVE
                       AIR SEA DIR/SP/G            HT/PER
                 (UTC) (F)     (DEG/KT/KT) (MB)    (FT/S)
MOUNT DESERT ROC 0300   22     320/ 12/ 15  988.2R
MATINICUS ROCK   0200   20     350/ 27/ 28  988.0F
ISLE OF SHOALS   0200   17     290/ 28/ 30  993.0F
JEFFREYS LEDGE   0238      41                N/A    10/ 9
CASHES LEDGE BUO 0250   22 40               990.3R  12/ 7
$$

.............KEY..............
   WCI - WIND CHILL
   TC  - TEMPERATURE IN CELSIUS
   VSB - VISIBILITY IN MILES
   HX  - HEAT INDEX
   FAIR- INDICATES FEW OR NO CLOUDS BELOW 12,000 FT, WITH NO 
         SIGNIFICANT WEATHER AND/OR OBSTRUCTIONS TO VISIBILITY.